Regional Weather Roundup
Issued by NWS Little Rock, AR

Home | Current Version | Previous Version | Graphics & Text | Print | Product List | Glossary On
Versions: 1 2 3 4 5 6 7 8 9 10 11 12 13 14 15 16 17 18 19 20 21 22 23 24 25 26 27 28 29 30 31 32 33 34 35 36 37 38 39 40 41 42 43 44 45 46 47 48 49 50
000
ASUS44 KLZK 230005
RWRLZK

WEATHER ROUNDUP FOR ARKANSAS
NATIONAL WEATHER SERVICE LITTLE ROCK AR
700 PM CDT TUE JUL 22 2014

NOTE: "FAIR" INDICATES FEW OR NO CLOUDS BELOW 12,000 FEET WITH NO
SIGNIFICANT WEATHER AND/OR OBSTRUCTIONS TO VISIBILITY.

ARZ001-003-010-029-230100-
NORTHWEST ARKANSAS

CITY           SKY/WX    TMP DP  RH WIND       PRES   REMARKS
FAYETTEVILLE   MOSUNNY   88  73  61 CALM      30.07S HX  95
6HR MIN TEMP:  86; 6HR MAX TEMP:  92;

FORT SMITH     SUNNY     90  71  53 S8        30.03S HX  96
6HR MIN TEMP:  88; 6HR MAX TEMP:  93;

HARRISON       SUNNY     88  74  63 S9        30.07S HX  96
6HR MIN TEMP:  86; 6HR MAX TEMP:  93;

BENTONVILLE    MOSUNNY   88  73  62 W5        30.09S HX  96
6HR MIN TEMP:  88; 6HR MAX TEMP:  91;

ROGERS         MOSUNNY   87  75  67 CALM      30.08S HX  96
6HR MIN TEMP:  86; 6HR MAX TEMP:  91;

SILOAM SPGS    MOSUNNY   90  72  55 NW6       30.07S HX  96
6HR MIN TEMP:  88; 6HR MAX TEMP:  91;

HIGHFILL       MOSUNNY   89  75  63 W3        30.07S HX  99
6HR MIN TEMP:  87; 6HR MAX TEMP:  93;

SPRINGDALE     MOSUNNY   90  73  58 CALM      30.09S HX  98
$$

ARZ004-005-016-230100-
NORTH CENTRAL ARKANSAS

CITY           SKY/WX    TMP DP  RH WIND       PRES   REMARKS
BATESVILLE     SUNNY     86  70  58 S3        30.04S HX  90
6HR MIN TEMP:  84; 6HR MAX TEMP:  90;

FLIPPIN        MOSUNNY   88  70  55 S5        30.05S HX  92
6HR MIN TEMP:  86; 6HR MAX TEMP:  91;

MTN HOME       MOSUNNY   86  72  62 S7        30.04S HX  92
6HR MIN TEMP:  84; 6HR MAX TEMP:  89;

$$

ARZ040-041-230100-
WEST CENTRAL ARKANSAS

CITY           SKY/WX    TMP DP  RH WIND       PRES   REMARKS
MENA           SUNNY     88  73  62 CALM      30.08S HX  96
MOUNT IDA      SUNNY     82  71  69 CALM      30.05F HX  86
6HR MIN TEMP:  82; 6HR MAX TEMP:  88;

$$

ARZ009-017-025-026-028-230100-
NORTHEAST ARKANSAS

CITY           SKY/WX    TMP DP  RH WIND       PRES   REMARKS
CORNING        LGT RAIN  86  70  58 SW5       30.04S HX  90
JONESBORO      SUNNY     85  67  54 SW7       30.03S HX  87
6HR MIN TEMP:  85; 6HR MAX TEMP:  88;

NEWPORT        SUNNY     87  71  58 VRB7      30.04F HX  92
6HR MIN TEMP:  87; 6HR MAX TEMP:  90;

WALNUT RIDGE   MOSUNNY   88  57  35 W8        30.03R HX  86
6HR MIN TEMP:  84; 6HR MAX TEMP:  90;

BLYTHEVILLE    SUNNY     86  72  62 NW7       30.03S HX  92
6HR MIN TEMP:  86; 6HR MAX TEMP:  91;

$$

ARZ022-023-033-042-044-230100-
CENTRAL ARKANSAS

CITY           SKY/WX    TMP DP  RH WIND       PRES   REMARKS
LITTLE ROCK    PTSUNNY   86  67  52 S5        30.04F HX  89
6HR MIN TEMP:  85; 6HR MAX TEMP:  89;

JACKSONVILLE   SUNNY     87  71  59 SE2       30.05R HX  93
SEARCY         SUNNY     87  71  58 W5        30.05F HX  92
6HR MIN TEMP:  86; 6HR MAX TEMP:  90;

HOT SPRINGS    MOSUNNY   86  68  54 S3        30.06S HX  89
6HR MIN TEMP:  84; 6HR MAX TEMP:  89;

RUSSELLVILLE   MOSUNNY   87  71  58 CALM      30.04S HX  93
6HR MIN TEMP:  85; 6HR MAX TEMP:  89;

CLINTON        FAIR      88  73  62 SE3       30.05S HX  96
$$

ARZ036-230100-
EAST ARKANSAS

CITY           SKY/WX    TMP DP  RH WIND       PRES   REMARKS
WEST MEMPHIS   SUNNY     87  73  62 VRB3      30.02S HX  94
6HR MIN TEMP:  86; 6HR MAX TEMP:  90;

$$

ARZ050-053-066-070-073-230100-
SOUTHWEST ARKANSAS

CITY           SKY/WX    TMP DP  RH WIND       PRES   REMARKS
ARKADELPHIA    FAIR      88  71  56 CALM      30.05S HX  93
6HR MIN TEMP:  86; 6HR MAX TEMP:  91;

CAMDEN         PTSUNNY   88  68  51 N5        30.04R HX  91
TEXARKANA      SUNNY     88  68  51 CALM      30.05R HX  91
6HR MIN TEMP:  85; 6HR MAX TEMP:  90;

EL DORADO      SUNNY     87  70  56 NE5       30.04S HX  92
6HR MIN TEMP:  86; 6HR MAX TEMP:  91;

DE QUEEN       SUNNY     87  71  58 SE3       30.03S HX  93
6HR MIN TEMP:  84; 6HR MAX TEMP:  90;

$$

ARZ056-057-069-230100-
SOUTHEAST ARKANSAS

CITY           SKY/WX    TMP DP  RH WIND       PRES   REMARKS
PINE BLUFF     SUNNY     86  70  58 E3        30.05R HX  90
6HR MIN TEMP:  85; 6HR MAX TEMP:  89;

STUTTGART      MOSUNNY   86  70  58 CALM      30.05F HX  90
6HR MIN TEMP:  84; 6HR MAX TEMP:  90;

MONTICELLO     SUNNY     87  70  56 CALM      30.03F HX  92
6HR MIN TEMP:  86; 6HR MAX TEMP:  89;


$$




USA.gov is the U.S. government's official web portal to all federal, state and local government web resources and services.